Ashtabula, OH

12:25 AM EDT on June 29, 2017 (GMT -0400)
Ashtabula County

Weather History for KHZY - March, 2013

Change the Weather History Date:

Sunday, March 3, 2013

  Actual Average (KGKJ) Record (KGKJ)
Temperature  
Mean Temperature 23 °F -  
Max Temperature 25 °F 43 °F 69 °F (1991)
Min Temperature 21 °F 20 °F -11 °F (1980)
Degree Days  
Heating Degree Days 42    
Moisture  
Dew Point 17 °F    
Average Humidity 76    
Maximum Humidity 86    
Minimum Humidity 63    
Precipitation  
Precipitation 0.04 in - - ()
Sea Level Pressure  
Sea Level Pressure 29.97 in    
Wind  
Wind Speed 7 mph (NW)    
Max Wind Speed 13 mph    
Max Gust Speed 21 mph    
Visibility 5 miles    
Events Snow    
Averages and records for this station are not official NWS values.
T = Trace of Precipitation, MM = Missing Value Source: NWS Daily Summary

Daily Weather History Graph

Daily Weather History Graph

Search for Another Location

Airport or City:

Trip Planner

Search our weather history database for the weather conditions in past years. The results will help you decide how hot, cold, wet, or windy it might be!

Date:

Astronomy

Mar. 03, 2013 Rise Set
Actual Time 6:54 AM EST 6:15 PM EST
Civil Twilight 6:26 AM EST 6:43 PM EST
Nautical Twilight 5:54 AM EST 7:15 PM EST
Astronomical Twilight 5:21 AM EST 7:48 PM EST
Moon No Moon Rise 10:02 AM EST (3/3)
Length of Visible Light 12h 17m
Length of Day
11h 21m
Waning Gibbous, 64% of the Moon is Illuminated
Mar 3
Waning Gibbous
Mar 4
Last Quarter
Mar 11
New
Mar 19
First Quarter
Mar 27
Full

Hourly Weather History & Observations

Time (EST) Temp. Windchill Dew Point Humidity Pressure Visibility Wind Dir Wind Speed Gust Speed Precip Events Conditions
12:13 AM 24.8 °F 20.5 °F 17.6 °F 74% 29.95 in 1.8 mi Variable 3.5 mph - 0.00 in Snow Light Snow
12:27 AM 24.8 °F 16.1 °F 17.6 °F 74% 29.95 in 2.5 mi North 8.1 mph - 0.00 in Snow Light Snow
12:39 AM 23.0 °F 15.8 °F 17.6 °F 80% 29.95 in 4.0 mi North 5.8 mph - 0.00 in Snow Light Snow
12:53 AM 24.1 °F 17.0 °F 18.0 °F 77% 29.99 in 5.0 mi North 5.8 mph - 0.00 in   Haze
1:53 AM 23.0 °F 18.4 °F 17.1 °F 78% 29.99 in 6.0 mi North 3.5 mph - 0.00 in Snow Light Snow
2:53 AM 23.0 °F 18.4 °F 18.0 °F 81% 29.97 in 3.0 mi NNW 3.5 mph - 0.01 in Snow Light Snow
3:12 AM 23.0 °F 18.4 °F 17.6 °F 80% 29.93 in 3.0 mi NW 3.5 mph - 0.00 in Snow Light Snow
3:53 AM 24.1 °F 12.5 °F 19.0 °F 81% 29.96 in 4.0 mi NW 12.7 mph 18.4 mph 0.01 in Snow Light Snow
4:53 AM 23.0 °F 12.4 °F 18.0 °F 81% 29.96 in 5.0 mi NW 10.4 mph - 0.00 in Snow Light Snow
5:53 AM 23.0 °F 15.8 °F 18.0 °F 81% 29.97 in 6.0 mi NW 5.8 mph - 0.00 in Snow Light Snow
6:53 AM 23.0 °F 13.1 °F 19.0 °F 85% 29.98 in 5.0 mi WNW 9.2 mph - 0.01 in Snow Light Snow
7:33 AM 23.0 °F 14.7 °F 19.4 °F 86% 29.95 in 2.5 mi WNW 6.9 mph - 0.00 in Snow Light Snow
7:53 AM 23.0 °F 17.0 °F 19.0 °F 85% 29.99 in 1.8 mi WNW 4.6 mph - 0.00 in Snow Light Snow
8:53 AM 24.1 °F 15.2 °F 19.0 °F 81% 29.99 in 1.8 mi WNW 8.1 mph - 0.01 in Snow Light Snow
9:20 AM 24.8 °F 14.0 °F 19.4 °F 80% 29.95 in 2.5 mi NW 11.5 mph - 0.00 in Snow Light Snow
9:53 AM 24.1 °F 15.2 °F 18.0 °F 77% 29.98 in 1.8 mi NW 8.1 mph - 0.00 in Snow Light Snow
10:10 AM 24.8 °F 16.9 °F 19.4 °F 80% 29.94 in 2.0 mi NW 6.9 mph - 0.00 in Snow Light Snow
10:35 AM 24.8 °F 14.6 °F 17.6 °F 74% 29.94 in 3.0 mi NW 10.4 mph 18.4 mph 0.00 in Snow Light Snow
10:53 AM 24.1 °F 13.7 °F 19.0 °F 81% 29.98 in 4.0 mi NW 10.4 mph 17.3 mph 0.00 in Snow Light Snow
11:38 AM 24.8 °F 13.4 °F 19.4 °F 80% 29.94 in 2.5 mi WNW 12.7 mph - 0.00 in Snow Light Snow
11:53 AM 24.1 °F 15.2 °F 19.0 °F 81% 29.98 in 1.8 mi WNW 8.1 mph - 0.00 in Snow Light Snow
12:03 PM 24.8 °F 15.3 °F 19.4 °F 80% 29.94 in 1.8 mi WNW 9.2 mph - 0.00 in Snow Light Snow
12:12 PM 24.8 °F 14.0 °F 19.4 °F 80% 29.94 in 2.0 mi NW 11.5 mph - 0.00 in Snow Light Snow
12:21 PM 24.8 °F 15.3 °F 19.4 °F 80% 29.94 in 1.8 mi NW 9.2 mph - 0.00 in Snow Light Snow
12:51 PM 24.8 °F 14.0 °F 19.4 °F 80% 29.94 in 2.0 mi NW 11.5 mph - 0.00 in Snow Light Snow
12:53 PM 25.0 °F 14.8 °F 19.0 °F 78% 29.98 in 2.5 mi WNW 10.4 mph 18.4 mph 0.00 in Snow Light Snow
1:28 PM 24.8 °F 14.6 °F 17.6 °F 74% 29.93 in 1.5 mi WNW 10.4 mph - 0.00 in Snow Light Snow
1:44 PM 24.8 °F 14.6 °F 17.6 °F 74% 29.93 in 2.0 mi NW 10.4 mph - 0.00 in Snow Light Snow
1:53 PM 25.0 °F 13.6 °F 17.1 °F 72% 29.97 in 2.5 mi NW 12.7 mph - 0.00 in Snow Light Snow
2:16 PM 24.8 °F 16.1 °F 17.6 °F 74% 29.93 in 1.8 mi NW 8.1 mph - 0.00 in Snow Light Snow
2:24 PM 24.8 °F 14.6 °F 17.6 °F 74% 29.93 in 3.0 mi NW 10.4 mph - 0.00 in Snow Light Snow
2:53 PM 25.0 °F 14.8 °F 16.0 °F 69% 29.97 in 9.0 mi WNW 10.4 mph 20.7 mph 0.00 in   Overcast
3:53 PM 25.0 °F 15.5 °F 14.0 °F 63% 29.97 in 10.0 mi WNW 9.2 mph 20.7 mph N/A   Overcast
4:53 PM 24.1 °F 13.7 °F 16.0 °F 71% 29.98 in 10.0 mi NW 10.4 mph - N/A   Overcast
5:53 PM 24.1 °F 14.4 °F 14.0 °F 65% 30.00 in 10.0 mi NW 9.2 mph - N/A   Overcast
6:53 PM 23.0 °F 13.9 °F 14.0 °F 68% 30.02 in 8.0 mi NW 8.1 mph - 0.00 in Snow Light Snow
7:29 PM 23.0 °F 15.8 °F 12.2 °F 63% 29.98 in 9.0 mi NW 5.8 mph - 0.00 in   Overcast
7:53 PM 23.0 °F 14.7 °F 12.0 °F 63% 30.03 in 10.0 mi WNW 6.9 mph - 0.00 in   Overcast
8:53 PM 21.9 °F 14.5 °F 14.0 °F 72% 30.04 in 10.0 mi WNW 5.8 mph - N/A   Overcast
9:53 PM 21.9 °F 12.5 °F 15.1 °F 75% 30.04 in 9.0 mi NW 8.1 mph - 0.00 in Snow Light Snow
10:51 PM 21.2 °F 12.6 °F 14.0 °F 74% 30.00 in 7.0 mi NNW 6.9 mph - 0.00 in Snow Light Snow
10:53 PM 21.9 °F 12.5 °F 14.0 °F 72% 30.04 in 7.0 mi NW 8.1 mph - 0.00 in Snow Light Snow
11:53 PM 21.9 °F 12.5 °F 14.0 °F 72% 30.04 in 9.0 mi NW 8.1 mph - 0.00 in Snow Light Snow